| time (UTC) | temp F | wind direction | speed MPH | gust MPH | rain 1hr in | rain 24hr in | rain mn in | humidity % | barometer mb |
| 20260510103828 | 69 | 343 | 3.0 | 8.0 | 0.00 | 0.00 | 0.00 | ||
| 20260510103427 | 68 | 355 | 4.0 | 6.0 | 0.00 | 0.00 | 0.00 | ||
| 20260510103025 | 68 | 19 | 2.0 | 6.0 | 0.00 | 0.00 | 0.00 | ||
| 20260510102617 | 68 | 13 | 5.0 | 9.0 | 0.00 | 0.00 | 0.00 | ||
| 20260510102214 | 68 | 346 | 5.0 | 7.0 | 0.00 | 0.00 | 0.00 | ||
| 20260510101813 | 68 | 358 | 2.0 | 6.0 | 0.00 | 0.00 | 0.00 | ||
| 20260510101412 | 68 | 9 | 5.0 | 8.0 | 0.00 | 0.00 | 0.00 | ||
| 20260510101009 | 69 | 27 | 8.0 | 10.0 | 0.00 | 0.00 | 0.00 | ||
| 20260510100608 | 68 | 59 | 4.0 | 9.0 | 0.00 | 0.00 | 0.00 | ||
| 20260510100206 | 69 | 88 | 5.0 | 9.0 | 0.00 | 0.00 | 0.00 | ||
| 20260510095806 | 67 | 50 | 3.0 | 7.0 | 0.00 | 0.00 | 0.00 | ||
| 20260510095403 | 67 | 334 | 4.0 | 7.0 | 0.00 | 0.00 | 0.00 | ||
| 20260510095001 | 68 | 354 | 3.0 | 5.0 | 0.00 | 0.00 | 0.00 | ||
| 20260510094553 | 67 | 26 | 3.0 | 6.0 | 0.00 | 0.00 | 0.00 | ||
| 20260510094151 | 67 | 54 | 5.0 | 7.0 | 0.00 | 0.00 | 0.00 | ||
| 20260510093749 | 67 | 16 | 5.0 | 8.0 | 0.00 | 0.00 | 0.00 | ||
| 20260510093348 | 67 | 60 | 4.0 | 9.0 | 0.00 | 0.00 | 0.00 | ||
| 20260510092946 | 66 | 355 | 3.0 | 5.0 | 0.00 | 0.00 | 0.00 | ||
| 20260510092545 | 67 | 85 | 3.0 | 5.0 | 0.00 | 0.00 | 0.00 | ||
| 20260510092144 | 67 | 98 | 6.0 | 8.0 | 0.00 | 0.00 | 0.00 | ||
| 20260510091741 | 68 | 90 | 2.0 | 4.0 | 0.00 | 0.00 | 0.00 | ||
| 20260510091340 | 67 | 105 | 2.0 | 5.0 | 0.00 | 0.00 | 0.00 | ||
| 20260510090939 | 66 | 24 | 3.0 | 7.0 | 0.00 | 0.00 | 0.00 | ||
| 20260510090531 | 66 | 55 | 2.0 | 5.0 | 0.00 | 0.00 | 0.00 | ||
| 20260510090128 | 66 | 94 | 4.0 | 6.0 | 0.00 | 0.00 | 0.00 | ||
| 20260510085727 | 65 | 60 | 6.0 | 9.0 | 0.00 | 0.00 | 0.00 | ||
| 20260510085326 | 64 | 20 | 3.0 | 7.0 | 0.00 | 0.00 | 0.00 | ||
| 20260510084924 | 64 | 15 | 5.0 | 9.0 | 0.00 | 0.00 | 0.00 | ||
| 20260510084522 | 65 | 131 | 1.0 | 4.0 | 0.00 | 0.00 | 0.00 | ||
| 20260510084120 | 65 | 202 | 2.0 | 5.0 | 0.00 | 0.00 | 0.00 | ||
| 20260510083719 | 65 | 102 | 4.0 | 7.0 | 0.00 | 0.00 | 0.00 | ||
| 20260510083318 | 63 | 82 | 6.0 | 7.0 | 0.00 | 0.00 | 0.00 | ||
| 20260510082915 | 62 | 349 | 3.0 | 6.0 | 0.00 | 0.00 | 0.00 | ||
| 20260510082507 | 63 | 9 | 2.0 | 5.0 | 0.00 | 0.00 | 0.00 | ||
| 20260510082105 | 63 | 27 | 7.0 | 9.0 | 0.00 | 0.00 | 0.00 | ||
| 20260510081704 | 63 | 0 | 3.0 | 5.0 | 0.00 | 0.00 | 0.00 | ||
| 20260510081303 | 62 | 21 | 3.0 | 5.0 | 0.00 | 0.00 | 0.00 | ||
| 20260510080900 | 62 | 355 | 3.0 | 6.0 | 0.00 | 0.00 | 0.00 | ||
| 20260510080459 | 62 | 348 | 3.0 | 7.0 | 0.00 | 0.00 | 0.00 | ||
| 20260510080057 | 61 | 16 | 2.0 | 6.0 | 0.00 | 0.00 | 0.00 | ||
| 20260510075656 | 62 | 29 | 4.0 | 7.0 | 0.00 | 0.00 | 0.00 | ||
| 20260510075254 | 62 | 40 | 2.0 | 4.0 | 0.00 | 0.00 | 0.00 | ||
| 20260510074852 | 61 | 357 | 4.0 | 8.0 | 0.00 | 0.00 | 0.00 | ||
| 20260510074444 | 61 | 35 | 3.0 | 5.0 | 0.00 | 0.00 | 0.00 | ||
| 20260510074042 | 61 | 61 | 4.0 | 6.0 | 0.00 | 0.00 | 0.00 | ||
| 20260510073640 | 62 | 59 | 3.0 | 5.0 | 0.00 | 0.00 | 0.00 | ||
| 20260510073239 | 60 | 12 | 3.0 | 6.0 | 0.00 | 0.00 | 0.00 | ||
| 20260510072837 | 61 | 1 | 2.0 | 8.0 | 0.00 | 0.00 | 0.00 | ||
| 20260510072436 | 60 | 0 | 1.0 | 2.0 | 0.00 | 0.00 | 0.00 | ||
| 20260510072033 | 61 | 19 | 2.0 | 4.0 | 0.00 | 0.00 | 0.00 | ||
| 20260510071632 | 63 | 50 | 4.0 | 8.0 | 0.00 | 0.00 | 0.00 | ||
| 20260510071231 | 68 | 7 | 2.0 | 4.0 | 0.00 | 0.00 | 0.00 | ||
| 20260510070829 | 68 | 48 | 2.0 | 4.0 | 0.00 | 0.00 | 0.00 | ||
| 20260510070421 | 62 | 16 | 3.0 | 6.0 | 0.00 | 0.00 | 0.00 | ||
| 20260510070018 | 60 | 54 | 5.0 | 7.0 | 0.00 | 0.00 | 0.00 | ||
| 20260510065617 | 59 | 41 | 5.0 | 8.0 | 0.00 | 0.00 | 0.00 | ||
| 20260510065216 | 59 | 96 | 1.0 | 4.0 | 0.00 | 0.00 | 0.00 | ||
| 20260510064814 | 60 | 129 | 2.0 | 5.0 | 0.00 | 0.00 | 0.00 | ||
| 20260510064412 | 59 | 135 | 1.0 | 3.0 | 0.00 | 0.00 | 0.00 | ||
| 20260510064010 | 61 | 135 | 0.0 | 0.0 | 0.00 | 0.00 | 0.00 | ||
| 20260510063608 | 63 | 135 | 1.0 | 2.0 | 0.00 | 0.00 | 0.00 | ||
| 20260510063207 | 59 | 135 | 0.0 | 1.0 | 0.00 | 0.00 | 0.00 | ||
| 20260510062803 | 57 | 135 | 2.0 | 3.0 | 0.00 | 0.00 | 0.00 | ||
| 20260510062355 | 58 | 135 | 1.0 | 3.0 | 0.00 | 0.00 | 0.00 | ||
| 20260510061953 | 57 | 135 | 2.0 | 5.0 | 0.00 | 0.00 | 0.00 | ||
| 20260510061552 | 59 | 135 | 0.0 | 0.0 | 0.00 | 0.00 | 0.00 | ||
| 20260510061150 | 58 | 135 | 0.0 | 1.0 | 0.00 | 0.00 | 0.00 | ||
| 20260510060748 | 59 | 135 | 0.0 | 2.0 | 0.00 | 0.00 | 0.00 | ||
| 20260510060347 | 56 | 135 | 0.0 | 1.0 | 0.00 | 0.00 | 0.00 | ||
| 20260510055945 | 55 | 135 | 0.0 | 1.0 | 0.00 | 0.00 | 0.00 | ||
| 20260510055544 | 58 | 135 | 0.0 | 1.0 | 0.00 | 0.00 | 0.00 | ||
| 20260510055142 | 56 | 135 | 2.0 | 4.0 | 0.00 | 0.00 | 0.00 | ||
| 20260510054740 | 53 | 135 | 1.0 | 3.0 | 0.00 | 0.00 | 0.00 | ||
| 20260510054332 | 52 | 135 | 0.0 | 3.0 | 0.00 | 0.00 | 0.00 | ||
| 20260510053930 | 52 | 135 | 1.0 | 2.0 | 0.00 | 0.00 | 0.00 | ||
| 20260510053528 | 53 | 135 | 1.0 | 3.0 | 0.00 | 0.00 | 0.00 | ||
| 20260510053127 | 52 | 135 | 0.0 | 1.0 | 0.00 | 0.00 | 0.00 | ||
| 20260510052324 | 51 | 135 | 0.0 | 2.0 | 0.00 | 0.00 | 0.00 | ||
| 20260510051921 | 50 | 135 | 1.0 | 2.0 | 0.00 | 0.00 | 0.00 | ||
| 20260510051520 | 51 | 135 | 0.0 | 2.0 | 0.00 | 0.00 | 0.00 | ||
| 20260510051119 | 52 | 135 | 0.0 | 2.0 | 0.00 | 0.00 | 0.00 | ||
| 20260510050717 | 52 | 135 | 0.0 | 0.0 | 0.00 | 0.00 | 0.00 | ||
| 20260510050308 | 56 | 135 | 0.0 | 1.0 | 0.00 | 0.00 | 0.00 | ||
| 20260510045505 | 50 | 135 | 0.0 | 0.0 | 0.00 | 0.00 | 0.00 | ||
| 20260510045104 | 49 | 135 | 0.0 | 0.0 | 0.00 | 0.00 | 0.00 | ||
| 20260510044703 | 48 | 135 | 0.0 | 0.0 | 0.00 | 0.00 | 0.00 | ||
| 20260510044300 | 46 | 135 | 0.0 | 0.0 | 0.00 | 0.00 | 0.00 | ||
| 20260510043859 | 46 | 135 | 0.0 | 0.0 | 0.00 | 0.00 | 0.00 | ||
| 20260510043458 | 46 | 135 | 0.0 | 0.0 | 0.00 | 0.00 | 0.00 | ||
| 20260510043057 | 47 | 135 | 0.0 | 2.0 | 0.00 | 0.00 | 0.00 | ||
| 20260510042654 | 47 | 135 | 0.0 | 0.0 | 0.00 | 0.00 | 0.00 | ||
| 20260510042246 | 48 | 135 | 1.0 | 2.0 | 0.00 | 0.00 | 0.00 | ||
| 20260510041844 | 47 | 135 | 0.0 | 0.0 | 0.00 | 0.00 | 0.00 | ||
| 20260510041443 | 45 | 135 | 0.0 | 0.0 | 0.00 | 0.00 | 0.00 | ||
| 20260510041041 | 44 | 135 | 0.0 | 0.0 | 0.00 | 0.00 | 0.00 | ||
| 20260510040639 | 43 | 135 | 0.0 | 0.0 | 0.00 | 0.00 | 0.00 | ||
| 20260510040238 | 43 | 135 | 0.0 | 0.0 | 0.00 | 0.00 | 0.00 | ||
| 20260510035836 | 42 | 135 | 0.0 | 0.0 | 0.00 | 0.00 | 0.00 | ||
| 20260510035434 | 42 | 135 | 0.0 | 0.0 | 0.00 | 0.00 | 0.00 | ||
| 20260510035033 | 42 | 135 | 0.0 | 0.0 | 0.00 | 0.00 | 0.00 | ||
| 20260510034631 | 42 | 135 | 0.0 | 0.0 | 0.00 | 0.00 | 0.00 | ||
| 20260510034223 | 41 | 135 | 0.0 | 0.0 | 0.00 | 0.00 | 0.00 | ||
| 20260510033821 | 41 | 135 | 0.0 | 0.0 | 0.00 | 0.00 | 0.00 | ||
| 20260510033419 | 42 | 135 | 0.0 | 0.0 | 0.00 | 0.00 | 0.00 | ||
| 20260510033018 | 40 | 135 | 0.0 | 0.0 | 0.00 | 0.00 | 0.00 | ||
| 20260510032616 | 39 | 135 | 0.0 | 2.0 | 0.00 | 0.00 | 0.00 | ||
| 20260510032215 | 39 | 135 | 0.0 | 0.0 | 0.00 | 0.00 | 0.00 | ||
| 20260510031812 | 40 | 135 | 0.0 | 0.0 | 0.00 | 0.00 | 0.00 | ||
| 20260510031412 | 40 | 135 | 0.0 | 1.0 | 0.00 | 0.00 | 0.00 | ||
| 20260510031011 | 41 | 135 | 0.0 | 0.0 | 0.00 | 0.00 | 0.00 | ||
| 20260510030609 | 41 | 135 | 1.0 | 2.0 | 0.00 | 0.00 | 0.00 | ||
| 20260510030200 | 41 | 135 | 0.0 | 0.0 | 0.00 | 0.00 | 0.00 | ||
| 20260510025758 | 41 | 135 | 0.0 | 0.0 | 0.00 | 0.00 | 0.00 | ||
| 20260510025357 | 41 | 135 | 0.0 | 0.0 | 0.00 | 0.00 | 0.00 | ||
| 20260510024956 | 41 | 135 | 0.0 | 0.0 | 0.00 | 0.00 | 0.00 | ||
| 20260510024553 | 41 | 135 | 1.0 | 2.0 | 0.00 | 0.00 | 0.00 | ||
| 20260510024152 | 40 | 138 | 3.0 | 4.0 | 0.00 | 0.00 | 0.00 | ||
| 20260510023750 | 40 | 157 | 1.0 | 2.0 | 0.00 | 0.00 | 0.00 | ||
| 20260510023349 | 40 | 157 | 0.0 | 1.0 | 0.00 | 0.00 | 0.00 | ||
| 20260510022948 | 40 | 157 | 1.0 | 1.0 | 0.00 | 0.00 | 0.00 | ||
| 20260510022545 | 41 | 157 | 1.0 | 2.0 | 0.00 | 0.00 | 0.00 | ||
| 20260510022137 | 40 | 157 | 1.0 | 2.0 | 0.00 | 0.00 | 0.00 | ||
| 20260510021735 | 40 | 157 | 0.0 | 0.0 | 0.00 | 0.00 | 0.00 | ||
| 20260510021334 | 40 | 157 | 0.0 | 1.0 | 0.00 | 0.00 | 0.00 | ||
| 20260510020932 | 41 | 157 | 0.0 | 0.0 | 0.00 | 0.00 | 0.00 | ||
| 20260510020530 | 42 | 157 | 0.0 | 0.0 | 0.00 | 0.00 | 0.00 | ||
| 20260510020129 | 42 | 157 | 0.0 | 0.0 | 0.00 | 0.00 | 0.00 | ||
| 20260510015727 | 42 | 157 | 0.0 | 0.0 | 0.00 | 0.00 | 0.00 | ||
| 20260510015325 | 41 | 157 | 0.0 | 0.0 | 0.00 | 0.00 | 0.00 | ||
| 20260510014924 | 41 | 157 | 0.0 | 0.0 | 0.00 | 0.00 | 0.00 | ||
| 20260510014523 | 42 | 157 | 0.0 | 0.0 | 0.00 | 0.00 | 0.00 | ||
| 20260510014115 | 42 | 157 | 1.0 | 2.0 | 0.00 | 0.00 | 0.00 | ||
| 20260510013712 | 42 | 157 | 0.0 | 0.0 | 0.00 | 0.00 | 0.00 | ||
| 20260510013311 | 42 | 157 | 0.0 | 0.0 | 0.00 | 0.00 | 0.00 | ||
| 20260510012910 | 43 | 157 | 0.0 | 0.0 | 0.00 | 0.00 | 0.00 | ||
| 20260510012508 | 43 | 157 | 0.0 | 0.0 | 0.00 | 0.00 | 0.00 | ||
| 20260510012107 | 43 | 157 | 0.0 | 0.0 | 0.00 | 0.00 | 0.00 | ||
| 20260510011704 | 43 | 157 | 0.0 | 0.0 | 0.00 | 0.00 | 0.00 | ||
| 20260510011303 | 43 | 157 | 0.0 | 0.0 | 0.00 | 0.00 | 0.00 | ||
| 20260510010902 | 43 | 157 | 0.0 | 0.0 | 0.00 | 0.00 | 0.00 | ||
| 20260510010500 | 43 | 157 | 0.0 | 0.0 | 0.00 | 0.00 | 0.00 | ||
| 20260510010051 | 42 | 157 | 0.0 | 0.0 | 0.00 | 0.00 | 0.00 | ||
| 20260510005649 | 42 | 157 | 0.0 | 0.0 | 0.00 | 0.00 | 0.00 | ||
| 20260510005248 | 42 | 157 | 0.0 | 0.0 | 0.00 | 0.00 | 0.00 | ||
| 20260510004847 | 42 | 157 | 0.0 | 0.0 | 0.00 | 0.00 | 0.00 | ||
| 20260510004444 | 42 | 157 | 0.0 | 0.0 | 0.00 | 0.00 | 0.00 | ||
| 20260510004043 | 42 | 157 | 0.0 | 0.0 | 0.00 | 0.00 | 0.00 | ||
| 20260510003641 | 42 | 157 | 0.0 | 0.0 | 0.00 | 0.00 | 0.00 | ||
| 20260510003240 | 42 | 157 | 0.0 | 1.0 | 0.00 | 0.00 | 0.00 | ||
| 20260510002838 | 43 | 157 | 0.0 | 0.0 | 0.00 | 0.00 | 0.00 | ||
| 20260510002436 | 43 | 157 | 0.0 | 0.0 | 0.00 | 0.00 | 0.00 | ||
| 20260510002028 | 43 | 157 | 0.0 | 0.0 | 0.00 | 0.00 | 0.00 | ||
| 20260510001627 | 43 | 157 | 0.0 | 0.0 | 0.00 | 0.00 | 0.00 | ||
| 20260510001226 | 43 | 157 | 0.0 | 0.0 | 0.00 | 0.00 | 0.00 | ||
| 20260510000823 | 43 | 157 | 0.0 | 0.0 | 0.00 | 0.00 | 0.00 | ||
| 20260510000422 | 43 | 157 | 1.0 | 2.0 | 0.00 | 0.00 | 0.00 | ||
| 20260510000021 | 44 | 157 | 1.0 | 2.0 | 0.00 | 0.00 | 0.00 | ||
| 20260509235619 | 44 | 157 | 0.0 | 2.0 | 0.00 | 0.00 | 0.00 | ||
| 20260509235217 | 43 | 157 | 0.0 | 0.0 | 0.00 | 0.00 | 0.00 | ||
| 20260509234816 | 44 | 157 | 0.0 | 0.0 | 0.00 | 0.00 | 0.00 | ||
| 20260509234414 | 43 | 157 | 0.0 | 1.0 | 0.00 | 0.00 | 0.00 | ||
| 20260509234006 | 43 | 157 | 0.0 | 0.0 | 0.00 | 0.00 | 0.00 | ||
| 20260509233603 | 44 | 157 | 0.0 | 2.0 | 0.00 | 0.00 | 0.00 | ||
| 20260509233202 | 44 | 157 | 0.0 | 1.0 | 0.00 | 0.00 | 0.00 | ||
| 20260509232801 | 44 | 157 | 1.0 | 2.0 | 0.00 | 0.00 | 0.00 | ||
| 20260509232359 | 44 | 157 | 2.0 | 2.0 | 0.00 | 0.00 | 0.00 | ||
| 20260509231957 | 44 | 157 | 0.0 | 2.0 | 0.00 | 0.00 | 0.00 | ||
| 20260509231555 | 44 | 157 | 0.0 | 2.0 | 0.00 | 0.00 | 0.00 | ||
| 20260509230753 | 45 | 157 | 1.0 | 2.0 | 0.00 | 0.00 | 0.00 | ||
| 20260509230351 | 45 | 157 | 0.0 | 0.0 | 0.00 | 0.00 | 0.00 | ||
| 20260509225942 | 45 | 157 | 0.0 | 0.0 | 0.00 | 0.00 | 0.00 | ||
| 20260509225540 | 45 | 157 | 0.0 | 0.0 | 0.00 | 0.00 | 0.00 | ||
| 20260509224739 | 45 | 157 | 0.0 | 0.0 | 0.00 | 0.00 | 0.00 | ||
| 20260509224335 | 45 | 157 | 0.0 | 0.0 | 0.00 | 0.00 | 0.00 | ||
| 20260509223933 | 46 | 157 | 0.0 | 0.0 | 0.00 | 0.00 | 0.00 | ||
| 20260509223531 | 45 | 157 | 0.0 | 0.0 | 0.00 | 0.00 | 0.00 | ||
| 20260509223130 | 45 | 157 | 0.0 | 0.0 | 0.00 | 0.00 | 0.00 | ||
| 20260509222728 | 45 | 157 | 0.0 | 0.0 | 0.00 | 0.00 | 0.00 | ||
| 20260509222326 | 45 | 157 | 0.0 | 1.0 | 0.00 | 0.00 | 0.00 | ||
| 20260509221918 | 45 | 157 | 1.0 | 2.0 | 0.00 | 0.00 | 0.00 | ||
| 20260509221516 | 45 | 157 | 0.0 | 0.0 | 0.00 | 0.00 | 0.00 | ||
| 20260509221114 | 46 | 157 | 0.0 | 0.0 | 0.00 | 0.00 | 0.00 | ||
| 20260509220713 | 46 | 157 | 0.0 | 0.0 | 0.00 | 0.00 | 0.00 | ||
| 20260509220311 | 47 | 157 | 0.0 | 0.0 | 0.00 | 0.00 | 0.00 | ||
| 20260509215910 | 47 | 157 | 0.0 | 0.0 | 0.00 | 0.00 | 0.00 | ||
| 20260509215508 | 47 | 157 | 0.0 | 0.0 | 0.00 | 0.00 | 0.00 | ||
| 20260509215105 | 47 | 157 | 0.0 | 1.0 | 0.00 | 0.00 | 0.00 | ||
| 20260509214704 | 47 | 157 | 1.0 | 2.0 | 0.00 | 0.00 | 0.00 | ||
| 20260509214303 | 46 | 157 | 1.0 | 2.0 | 0.00 | 0.00 | 0.00 | ||
| 20260509213855 | 46 | 157 | 0.0 | 0.0 | 0.00 | 0.00 | 0.00 | ||
| 20260509213452 | 48 | 67 | 1.0 | 3.0 | 0.00 | 0.00 | 0.00 | ||
| 20260509213051 | 48 | 67 | 1.0 | 3.0 | 0.00 | 0.00 | 0.00 | ||
| 20260509212650 | 48 | 67 | 0.0 | 2.0 | 0.00 | 0.00 | 0.00 | ||
| 20260509212248 | 49 | 67 | 2.0 | 3.0 | 0.00 | 0.00 | 0.00 | ||
| 20260509211846 | 48 | 67 | 3.0 | 4.0 | 0.00 | 0.00 | 0.00 | ||
| 20260509211444 | 48 | 67 | 2.0 | 4.0 | 0.00 | 0.00 | 0.00 | ||
| 20260509211043 | 50 | 67 | 3.0 | 4.0 | 0.00 | 0.00 | 0.00 | ||
| 20260509210642 | 50 | 84 | 3.0 | 6.0 | 0.00 | 0.00 | 0.00 | ||
| 20260509210239 | 50 | 67 | 3.0 | 4.0 | 0.00 | 0.00 | 0.00 | ||
| 20260509205831 | 50 | 47 | 4.0 | 8.0 | 0.00 | 0.00 | 0.00 | ||
| 20260509205429 | 50 | 39 | 3.0 | 7.0 | 0.00 | 0.00 | 0.00 | ||
| 20260509205028 | 50 | 27 | 4.0 | 6.0 | 0.00 | 0.00 | 0.00 | ||
| 20260509204627 | 50 | 39 | 4.0 | 5.0 | 0.00 | 0.00 | 0.00 | ||
| 20260509204224 | 50 | 45 | 4.0 | 6.0 | 0.00 | 0.00 | 0.00 | ||
| 20260509203823 | 50 | 41 | 4.0 | 6.0 | 0.00 | 0.00 | 0.00 | ||
| 20260509203421 | 51 | 35 | 4.0 | 6.0 | 0.00 | 0.00 | 0.00 | ||
| 20260509203020 | 51 | 41 | 5.0 | 6.0 | 0.00 | 0.00 | 0.00 | ||
| 20260509202618 | 51 | 40 | 4.0 | 7.0 | 0.00 | 0.00 | 0.00 | ||
| 20260509202216 | 51 | 20 | 5.0 | 6.0 | 0.00 | 0.00 | 0.00 | ||
| 20260509201808 | 51 | 35 | 4.0 | 7.0 | 0.00 | 0.00 | 0.00 | ||
| 20260509201407 | 51 | 41 | 4.0 | 6.0 | 0.00 | 0.00 | 0.00 | ||
| 20260509201004 | 51 | 45 | 3.0 | 4.0 | 0.00 | 0.00 | 0.00 | ||
| 20260509200604 | 52 | 45 | 4.0 | 5.0 | 0.00 | 0.00 | 0.00 | ||
| 20260509200202 | 52 | 30 | 4.0 | 5.0 | 0.00 | 0.00 | 0.00 | ||
| 20260509195801 | 52 | 42 | 4.0 | 5.0 | 0.00 | 0.00 | 0.00 | ||
| 20260509194957 | 52 | 67 | 3.0 | 4.0 | 0.00 | 0.00 | 0.00 | ||
| 20260509194556 | 52 | 67 | 2.0 | 4.0 | 0.00 | 0.00 | 0.00 | ||
| 20260509194154 | 52 | 67 | 3.0 | 4.0 | 0.00 | 0.00 | 0.00 | ||
| 20260509193746 | 52 | 67 | 3.0 | 4.0 | 0.00 | 0.00 | 0.00 | ||
| 20260509193343 | 52 | 67 | 3.0 | 4.0 | 0.00 | 0.00 | 0.00 | ||
| 20260509192942 | 52 | 67 | 3.0 | 5.0 | 0.00 | 0.00 | 0.00 | ||
| 20260509192541 | 52 | 48 | 4.0 | 6.0 | 0.00 | 0.00 | 0.00 | ||
| 20260509192139 | 52 | 67 | 3.0 | 6.0 | 0.00 | 0.00 | 0.00 | ||
| 20260509191737 | 52 | 69 | 4.0 | 6.0 | 0.00 | 0.00 | 0.00 | ||
| 20260509191335 | 52 | 82 | 3.0 | 4.0 | 0.00 | 0.00 | 0.00 | ||
| 20260509190934 | 52 | 71 | 4.0 | 7.0 | 0.00 | 0.00 | 0.00 | ||
| 20260509190533 | 52 | 67 | 4.0 | 5.0 | 0.00 | 0.00 | 0.00 | ||
| 20260509190130 | 52 | 72 | 4.0 | 5.0 | 0.00 | 0.00 | 0.00 | ||
| 20260509185722 | 53 | 67 | 4.0 | 6.0 | 0.00 | 0.00 | 0.00 | ||
| 20260509185320 | 53 | 66 | 4.0 | 6.0 | 0.00 | 0.00 | 0.00 | ||
| 20260509184919 | 53 | 62 | 3.0 | 5.0 | 0.00 | 0.00 | 0.00 | ||
| 20260509184517 | 53 | 58 | 4.0 | 5.0 | 0.00 | 0.00 | 0.00 | ||
| 20260509184115 | 53 | 50 | 5.0 | 6.0 | 0.00 | 0.00 | 0.00 | ||
| 20260509183714 | 53 | 45 | 5.0 | 7.0 | 0.00 | 0.00 | 0.00 | ||
| 20260509183312 | 53 | 49 | 5.0 | 6.0 | 0.00 | 0.00 | 0.00 | ||
| 20260509182911 | 53 | 45 | 3.0 | 5.0 | 0.00 | 0.00 | 0.00 | ||
| 20260509182509 | 53 | 45 | 3.0 | 6.0 | 0.00 | 0.00 | 0.00 | ||
| 20260509182107 | 54 | 45 | 4.0 | 6.0 | 0.00 | 0.00 | 0.00 | ||
| 20260509181700 | 54 | 45 | 3.0 | 4.0 | 0.00 | 0.00 | 0.00 | ||
| 20260509181258 | 54 | 45 | 2.0 | 3.0 | 0.00 | 0.00 | 0.00 | ||
| 20260509180856 | 54 | 45 | 3.0 | 5.0 | 0.00 | 0.00 | 0.00 | ||
| 20260509180455 | 55 | 45 | 2.0 | 5.0 | 0.00 | 0.00 | 0.00 | ||
| 20260509180053 | 55 | 35 | 4.0 | 7.0 | 0.00 | 0.00 | 0.00 | ||
| 20260509175652 | 55 | 42 | 3.0 | 5.0 | 0.00 | 0.00 | 0.00 | ||
| 20260509175249 | 55 | 21 | 1.0 | 3.0 | 0.00 | 0.00 | 0.00 | ||
| 20260509174848 | 56 | 29 | 3.0 | 6.0 | 0.00 | 0.00 | 0.00 | ||
| 20260509174447 | 56 | 18 | 4.0 | 7.0 | 0.00 | 0.00 | 0.00 | ||
| 20260509174045 | 56 | 53 | 3.0 | 5.0 | 0.00 | 0.00 | 0.00 | ||
| 20260509173636 | 56 | 35 | 4.0 | 8.0 | 0.00 | 0.00 | 0.00 | ||
| 20260509173234 | 56 | 26 | 6.0 | 10.0 | 0.00 | 0.00 | 0.00 | ||
| 20260509172833 | 57 | 13 | 2.0 | 7.0 | 0.00 | 0.00 | 0.00 | ||
| 20260509172432 | 57 | 10 | 3.0 | 6.0 | 0.00 | 0.00 | 0.00 | ||
| 20260509172030 | 57 | 13 | 6.0 | 10.0 | 0.00 | 0.00 | 0.00 | ||
| 20260509171628 | 57 | 0 | 4.0 | 6.0 | 0.00 | 0.00 | 0.00 | ||
| 20260509171226 | 57 | 17 | 4.0 | 7.0 | 0.00 | 0.00 | 0.00 | ||
| 20260509170825 | 57 | 16 | 5.0 | 9.0 | 0.00 | 0.00 | 0.00 | ||
| 20260509170021 | 57 | 26 | 5.0 | 7.0 | 0.00 | 0.00 | 0.00 | ||
| 20260509165613 | 58 | 19 | 4.0 | 8.0 | 0.00 | 0.00 | 0.00 | ||
| 20260509165211 | 58 | 11 | 4.0 | 6.0 | 0.00 | 0.00 | 0.00 | ||
| 20260509164810 | 58 | 44 | 2.0 | 5.0 | 0.00 | 0.00 | 0.00 | ||
| 20260509164408 | 59 | 1 | 3.0 | 5.0 | 0.00 | 0.00 | 0.00 | ||
| 20260509164006 | 59 | 65 | 1.0 | 4.0 | 0.00 | 0.00 | 0.00 | ||
| 20260509163605 | 59 | 13 | 1.0 | 4.0 | 0.00 | 0.00 | 0.00 | ||
| 20260509163203 | 58 | 20 | 3.0 | 4.0 | 0.00 | 0.00 | 0.00 | ||
| 20260509162801 | 58 | 70 | 4.0 | 6.0 | 0.00 | 0.00 | 0.00 | ||
| 20260509162400 | 58 | 48 | 5.0 | 7.0 | 0.00 | 0.00 | 0.00 | ||
| 20260509161958 | 58 | 32 | 6.0 | 9.0 | 0.00 | 0.00 | 0.00 | ||
| 20260509161550 | 59 | 46 | 3.0 | 4.0 | 0.00 | 0.00 | 0.00 | ||
| 20260509161149 | 58 | 26 | 7.0 | 10.0 | 0.00 | 0.00 | 0.00 | ||
| 20260509160746 | 59 | 37 | 3.0 | 7.0 | 0.00 | 0.00 | 0.00 | ||
| 20260509160345 | 59 | 55 | 3.0 | 5.0 | 0.00 | 0.00 | 0.00 | ||
| 20260509155943 | 59 | 47 | 3.0 | 5.0 | 0.00 | 0.00 | 0.00 | ||
| 20260509155543 | 61 | 22 | 6.0 | 10.0 | 0.00 | 0.00 | 0.00 | ||
| 20260509155140 | 60 | 14 | 1.0 | 5.0 | 0.00 | 0.00 | 0.00 | ||
| 20260509154738 | 60 | 12 | 3.0 | 6.0 | 0.00 | 0.00 | 0.00 | ||
| 20260509154337 | 60 | 19 | 3.0 | 6.0 | 0.00 | 0.00 | 0.00 | ||
| 20260509153935 | 59 | 43 | 3.0 | 6.0 | 0.00 | 0.00 | 0.00 | ||
| 20260509153526 | 59 | 22 | 6.0 | 12.0 | 0.00 | 0.00 | 0.00 | ||
| 20260509153124 | 59 | 29 | 3.0 | 8.0 | 0.00 | 0.00 | 0.00 | ||
| 20260509152723 | 59 | 60 | 3.0 | 7.0 | 0.00 | 0.00 | 0.00 | ||
| 20260509152322 | 59 | 42 | 4.0 | 7.0 | 0.00 | 0.00 | 0.00 | ||
| 20260509151919 | 59 | 55 | 4.0 | 6.0 | 0.00 | 0.00 | 0.00 | ||
| 20260509151518 | 59 | 342 | 2.0 | 4.0 | 0.00 | 0.00 | 0.00 | ||
| 20260509151116 | 59 | 19 | 1.0 | 4.0 | 0.00 | 0.00 | 0.00 | ||
| 20260509150715 | 58 | 24 | 4.0 | 7.0 | 0.00 | 0.00 | 0.00 | ||
| 20260509150313 | 58 | 31 | 7.0 | 10.0 | 0.00 | 0.00 | 0.00 | ||
| 20260509145910 | 58 | 31 | 6.0 | 10.0 | 0.00 | 0.00 | 0.00 | ||
| 20260509145502 | 59 | 15 | 3.0 | 8.0 | 0.00 | 0.00 | 0.00 | ||
| 20260509145101 | 59 | 3 | 5.0 | 9.0 | 0.00 | 0.00 | 0.00 | ||
| 20260509144700 | 59 | 0 | 4.0 | 7.0 | 0.00 | 0.00 | 0.00 | ||
| 20260509144257 | 59 | 0 | 3.0 | 8.0 | 0.00 | 0.00 | 0.00 | ||
| 20260509143856 | 58 | 1 | 3.0 | 6.0 | 0.00 | 0.00 | 0.00 | ||
| 20260509143455 | 59 | 6 | 5.0 | 8.0 | 0.00 | 0.00 | 0.00 | ||
| 20260509143052 | 59 | 0 | 4.0 | 9.0 | 0.00 | 0.00 | 0.00 | ||
| 20260509142650 | 59 | 18 | 6.0 | 10.0 | 0.00 | 0.00 | 0.00 | ||
| 20260509142249 | 60 | 11 | 1.0 | 9.0 | 0.00 | 0.00 | 0.00 | ||
| 20260509141847 | 59 | 11 | 4.0 | 10.0 | 0.00 | 0.00 | 0.00 | ||
| 20260509141439 | 59 | 345 | 5.0 | 9.0 | 0.00 | 0.00 | 0.00 | ||
| 20260509141036 | 59 | 359 | 3.0 | 7.0 | 0.00 | 0.00 | 0.00 | ||
| 20260509140635 | 59 | 341 | 4.0 | 8.0 | 0.00 | 0.00 | 0.00 | ||
| 20260509140234 | 60 | 2 | 2.0 | 4.0 | 0.00 | 0.00 | 0.00 | ||
| 20260509135833 | 59 | 24 | 4.0 | 8.0 | 0.00 | 0.00 | 0.00 | ||
| 20260509135432 | 59 | 20 | 4.0 | 7.0 | 0.00 | 0.00 | 0.00 | ||
| 20260509135029 | 59 | 34 | 5.0 | 8.0 | 0.00 | 0.00 | 0.00 | ||
| 20260509134628 | 59 | 30 | 4.0 | 8.0 | 0.00 | 0.00 | 0.00 | ||
| 20260509134227 | 59 | 31 | 5.0 | 10.0 | 0.00 | 0.00 | 0.00 | ||
| 20260509133825 | 59 | 54 | 6.0 | 10.0 | 0.00 | 0.00 | 0.00 | ||
| 20260509133416 | 59 | 47 | 6.0 | 10.0 | 0.00 | 0.00 | 0.00 | ||
| 20260509133014 | 60 | 51 | 5.0 | 9.0 | 0.00 | 0.00 | 0.00 | ||
| 20260509132613 | 60 | 338 | 3.0 | 6.0 | 0.00 | 0.00 | 0.00 | ||
| 20260509132212 | 60 | 0 | 6.0 | 10.0 | 0.00 | 0.00 | 0.00 | ||
| 20260509131809 | 61 | 344 | 3.0 | 7.0 | 0.00 | 0.00 | 0.00 | ||
| 20260509131408 | 61 | 327 | 2.0 | 4.0 | 0.00 | 0.00 | 0.00 | ||
| 20260509131006 | 60 | 343 | 4.0 | 6.0 | 0.00 | 0.00 | 0.00 | ||
| 20260509130605 | 61 | 331 | 3.0 | 7.0 | 0.00 | 0.00 | 0.00 | ||
| 20260509130203 | 62 | 342 | 2.0 | 4.0 | 0.00 | 0.00 | 0.00 | ||
| 20260509125801 | 61 | 343 | 2.0 | 6.0 | 0.00 | 0.00 | 0.00 | ||
| 20260509125353 | 61 | 352 | 4.0 | 8.0 | 0.00 | 0.00 | 0.00 | ||
| 20260509124951 | 60 | 357 | 2.0 | 6.0 | 0.00 | 0.00 | 0.00 | ||
| 20260509124550 | 59 | 329 | 2.0 | 6.0 | 0.00 | 0.00 | 0.00 | ||
| 20260509124148 | 61 | 339 | 3.0 | 5.0 | 0.00 | 0.00 | 0.00 | ||
| 20260509123746 | 61 | 354 | 3.0 | 9.0 | 0.00 | 0.00 | 0.00 | ||
| 20260509123345 | 60 | 352 | 2.0 | 7.0 | 0.00 | 0.00 | 0.00 | ||
| 20260509122943 | 61 | 310 | 2.0 | 5.0 | 0.00 | 0.00 | 0.00 | ||
| 20260509122541 | 59 | 323 | 4.0 | 7.0 | 0.00 | 0.00 | 0.00 | ||
| 20260509122140 | 60 | 321 | 4.0 | 9.0 | 0.00 | 0.00 | 0.00 | ||
| 20260509121739 | 60 | 3 | 5.0 | 8.0 | 0.00 | 0.00 | 0.00 | ||
| 20260509121331 | 61 | 12 | 4.0 | 8.0 | 0.00 | 0.00 | 0.00 | ||
| 20260509120928 | 61 | 8 | 2.0 | 5.0 | 0.00 | 0.00 | 0.00 | ||
| 20260509120527 | 60 | 39 | 4.0 | 6.0 | 0.00 | 0.00 | 0.00 | ||
| 20260509120126 | 61 | 355 | 2.0 | 4.0 | 0.00 | 0.00 | 0.00 | ||
| 20260509115724 | 61 | 8 | 1.0 | 4.0 | 0.00 | 0.00 | 0.00 | ||
| 20260509115322 | 60 | 350 | 3.0 | 5.0 | 0.00 | 0.00 | 0.00 | ||
| 20260509114920 | 61 | 14 | 3.0 | 6.0 | 0.00 | 0.00 | 0.00 | ||
| 20260509114519 | 60 | 67 | 0.0 | 2.0 | 0.00 | 0.00 | 0.00 | ||
| 20260509114118 | 60 | 14 | 4.0 | 7.0 | 0.00 | 0.00 | 0.00 | ||
| 20260509113716 | 61 | 5 | 2.0 | 7.0 | 0.00 | 0.00 | 0.00 | ||
| 20260509113307 | 60 | 13 | 5.0 | 9.0 | 0.00 | 0.00 | 0.00 | ||
| 20260509112905 | 60 | 70 | 6.0 | 9.0 | 0.00 | 0.00 | 0.00 | ||
| 20260509112103 | 62 | 1 | 1.0 | 4.0 | 0.00 | 0.00 | 0.00 | ||
| 20260509111700 | 61 | 5 | 2.0 | 6.0 | 0.00 | 0.00 | 0.00 | ||
| 20260509111259 | 60 | 46 | 3.0 | 6.0 | 0.00 | 0.00 | 0.00 | ||
| 20260509110857 | 61 | 56 | 3.0 | 7.0 | 0.00 | 0.00 | 0.00 | ||
| 20260509110456 | 61 | 8 | 4.0 | 7.0 | 0.00 | 0.00 | 0.00 | ||
| 20260509110054 | 61 | 18 | 4.0 | 7.0 | 0.00 | 0.00 | 0.00 | ||
| 20260509105652 | 61 | 12 | 2.0 | 6.0 | 0.00 | 0.00 | 0.00 | ||
| 20260509105244 | 60 | 0 | 1.0 | 4.0 | 0.00 | 0.00 | 0.00 | ||
| 20260509104843 | 60 | 67 | 2.0 | 4.0 | 0.00 | 0.00 | 0.00 | ||
| 20260509104440 | 60 | 65 | 6.0 | 9.0 | 0.00 | 0.00 | 0.00 | ||
| 20260509104040 | 61 | 20 | 5.0 | 10.0 | 0.00 | 0.00 | 0.00 |